HK6LRQ-21 Weather Reports


Display with metric or nautical units.
time (UTC)temp
F
wind
direction
speed
MPH
gust
MPH
rain 1hr
in
rain 24hr
in
rain mn
in
humidity
%
barometer
mb
20260507124229 61 226 1.0 3.0 0.00 0.00 0.00 75 1017.0
20260507122228 52 95 3.0 4.0 0.00 0.00 0.00 80 1017.0
20260507120227 52 95 3.0 4.0 0.00 0.00 0.00 80 1017.0
20260507114226 51 92 5.0 4.0 0.00 0.00 0.00 80 1017.0
20260507112225 52 92 5.0 4.0 0.00 0.00 0.00 80 1016.0
20260507110224 50 93 5.0 4.0 0.00 0.00 0.00 80 1016.0
20260507104223 51 93 5.0 4.0 0.00 0.00 0.00 80 1017.0
20260507102222 52 93 5.0 4.0 0.00 0.00 0.00 80 1016.0
20260507100222 50 93 5.0 4.0 0.00 0.00 0.00 80 1016.0
20260507094221 52 93 5.0 4.0 0.00 0.00 0.00 80 1017.0
20260507092220 50 93 5.0 4.0 0.00 0.00 0.00 80 1016.0
20260507090219 51 93 5.0 4.0 0.00 0.00 0.00 80 1016.0
20260507084218 53 93 5.0 4.0 0.00 0.00 0.00 80 1017.0
20260507082217 50 91 5.0 5.0 0.00 0.00 0.00 80 1016.0
20260507080216 51 91 5.0 5.0 0.00 0.00 0.00 80 1016.0
20260507074215 52 91 5.0 5.0 0.00 0.00 0.00 80 1017.0
20260507072214 53 91 6.0 5.0 0.00 0.00 0.00 80 1016.0
20260507070213 51 93 7.0 5.0 0.00 0.00 0.00 80 1016.0
20260507064212 52 93 7.0 5.0 0.00 0.00 0.00 80 1017.0
20260507062211 53 93 7.0 5.0 0.00 0.00 0.00 80 1017.0
20260507060210 51 93 5.0 4.0 0.00 0.00 0.00 80 1018.0
20260507054209 53 93 6.0 4.0 0.00 0.00 0.00 80 1018.0
20260507052208 51 92 7.0 5.0 0.00 0.00 0.00 80 1017.0
20260507050207 52 92 7.0 5.0 0.00 0.00 0.00 80 1017.0
20260507044206 54 92 7.0 5.0 0.00 0.00 0.00 80 1018.0
20260507042205 52 93 7.0 5.0 0.00 0.00 0.00 80 1017.0
20260507040204 54 93 7.0 5.0 0.00 0.00 0.00 80 1017.0
20260507034203 52 95 7.0 5.0 0.00 0.00 0.00 80 1018.0
20260507032202 54 95 7.0 5.0 0.00 0.00 0.00 80 1017.0
20260507030201 52 97 7.0 5.0 0.00 0.00 0.00 80 1017.0
20260507024200 53 97 7.0 5.0 0.00 0.00 0.00 80 1018.0
20260507022159 55 97 7.0 5.0 0.00 0.00 0.00 80 1016.0
20260507020158 53 98 5.0 5.0 0.00 0.00 0.00 80 1016.0
20260507014157 54 98 5.0 5.0 0.00 0.00 0.00 80 1017.0
20260507012156 56 98 6.0 5.0 0.00 0.00 0.00 80 1015.0
20260507010155 55 98 5.0 5.0 0.00 0.00 0.00 80 1015.0
20260507004153 57 98 6.0 5.0 0.00 0.00 0.00 80 1016.0
20260507002152 56 105 3.0 4.0 0.00 0.00 0.00 80 1014.0
20260507000151 58 105 3.0 4.0 0.00 0.00 0.00 80 1014.0
20260506234150 60 105 3.0 4.0 0.00 0.00 0.00 80 1014.0
20260506232149 62 105 3.0 4.0 0.00 0.00 0.00 80 1012.0
20260506230148 64 105 3.0 4.0 0.00 0.00 0.00 80 1012.0
20260506224147 61 187 1.0 3.0 0.00 0.00 0.00 80 1013.0
20260506222146 62 187 1.0 3.0 0.00 0.00 0.00 80 1011.0
20260506220145 63 187 1.0 3.0 0.00 0.00 0.00 80 1011.0
20260506214144 64 187 1.0 3.0 0.00 0.00 0.00 80 1012.0
20260506212143 65 187 1.0 3.0 0.00 0.00 0.00 80 1010.0
20260506210142 66 187 1.0 3.0 0.00 0.00 0.00 80 1010.0
20260506204141 67 187 1.0 3.0 0.01 0.00 0.00 80 1011.0
20260506202140 65 236 1.0 4.0 0.00 0.00 0.00 82 1011.0
20260506200139 66 236 1.0 4.0 0.00 0.00 0.00 83 1011.0
20260506194138 67 236 1.0 4.0 0.01 0.00 0.00 83 1012.0
20260506185921 67 253 1.0 4.0 0.00 0.00 0.00 83 1012.0
20260506183920 67 253 1.0 4.0 0.00 0.00 0.00 83 1012.0
20260506181919 67 237 2.0 5.0 0.00 0.00 0.00 83 1012.0
20260506175918 67 237 2.0 5.0 0.00 0.00 0.00 83 1013.0
20260506173917 67 234 2.0 4.0 0.00 0.00 0.00 83 1013.0
20260506171916 67 255 3.0 4.0 0.00 0.00 0.00 83 1014.0
20260506165915 67 255 3.0 4.0 0.00 0.00 0.00 83 1014.0
20260506163914 67 255 3.0 4.0 0.00 0.00 0.00 83 1014.0
20260506161913 67 251 3.0 5.0 0.00 0.00 0.00 83 1015.0
20260506155912 65 251 3.0 5.0 0.00 0.00 0.00 88 1015.0
20260506153911 65 251 3.0 5.0 0.00 0.00 0.00 81 1016.0
20260506151910 63 255 3.0 5.0 0.00 0.00 0.00 94 1016.0
20260506145909 63 255 3.0 5.0 0.00 0.00 0.00 94 1016.0
20260506143908 63 248 1.0 4.0 0.00 0.00 0.00 94 1016.0
20260506141908 64 248 2.0 4.0 0.00 0.00 0.00 94 1017.0
20260506135906 62 248 2.0 4.0 0.00 0.00 0.00 82 1017.0
20260506133906 58 248 2.0 4.0 0.00 0.00 0.00 83 1017.0
20260506131905 55 225 1.0 3.0 0.00 0.00 0.00 87 1017.0
20260506125904 57 225 1.0 3.0 0.00 0.00 0.00 85 1017.0